EW4283 Weather Reports


time (UTC)temp
C
wind
direction
speed
KPH
gust
KPH
rain 1hr
cm
rain 24hr
cm
rain mn
cm
humidity
%
barometer
mb
20260510094521 13 49 0.0 3.2 0.00 0.41 0.36 89 1011.5
20260510093030 14 15 0.0 1.6 0.00 0.41 0.36 86 1011.8
20260510091517 15 16 0.0 3.2 0.00 0.41 0.36 85 1011.7
20260510090025 15 300 1.6 6.4 0.00 0.41 0.36 84 1011.7
20260510084521 15 340 6.4 9.7 0.00 0.41 0.36 84 1011.5
20260510083015 15 349 0.0 11.3 0.00 0.41 0.36 85 1011.3
20260510081514 15 11 3.2 8.0 0.00 0.41 0.36 84 1011.0
20260510074512 15 191 6.4 12.9 0.00 0.41 0.36 83 1009.4
20260510073011 16 187 11.3 16.1 0.00 0.41 0.36 83 1009.2
20260510071510 16 200 9.7 25.7 0.00 0.41 0.36 84 1009.2
20260510070010 16 195 16.1 24.1 0.03 0.41 0.36 84 1008.7
20260510064509 15 192 19.3 29.0 0.10 0.41 0.36 85 1008.4
20260510063011 15 210 20.9 33.8 0.18 0.41 0.36 88 1008.2
20260510061506 14 139 19.3 30.6 0.28 0.41 0.36 90 1008.6
20260510060101 15 199 12.9 20.9 0.33 0.38 0.33 91 1011.0
20260510054556 15 172 3.2 6.4 0.28 0.30 0.25 91 1012.4
20260510053051 16 146 0.0 3.2 0.20 0.23 0.18 87 1014.1
20260510051547 16 229 4.8 9.7 0.10 0.13 0.08 84 1014.5
20260510050042 17 240 4.8 16.1 0.03 0.05 0.00 76 1014.3
20260510044555 19 314 3.2 6.4 0.00 0.03 0.03 66 1014.2
20260510043038 20 334 4.8 24.1 0.00 0.03 0.03 60 1013.7
20260510041534 20 288 1.6 4.8 0.00 0.03 0.03 56 1013.0
20260510040033 20 1 4.8 17.7 0.00 0.03 0.03 55 1012.8
20260510034528 21 21 3.2 8.0 0.00 0.03 0.03 57 1011.3
20260510033025 21 203 0.0 1.6 0.00 0.03 0.03 54 1010.7
20260510031527 21 130 0.0 4.8 0.00 0.03 0.03 53 1009.8
20260510030034 21 95 1.6 6.4 0.00 0.03 0.03 52 1009.5
20260510024525 21 79 0.0 6.4 0.00 0.03 0.03 53 1009.3
20260510023023 21 127 0.0 6.4 0.00 0.03 0.03 54 1009.2
20260510021527 21 134 0.0 4.8 0.00 0.03 0.03 56 1009.1
20260510020025 21 143 0.0 3.2 0.00 0.03 0.03 56 1008.3
20260510014521 21 91 0.0 4.8 0.00 0.03 0.03 54 1007.7
20260510013024 21 284 0.0 4.8 0.00 0.03 0.03 53 1007.5
20260510011520 22 44 0.0 1.6 0.00 0.03 0.03 50 1007.3
20260510010019 23 124 0.0 1.6 0.00 0.03 0.03 45 1007.2
20260510004518 26 214 0.0 3.2 0.00 0.03 0.03 40 1007.1
20260510003023 27 184 0.0 1.6 0.00 0.03 0.03 38 1007.2
20260510001517 27 118 1.6 11.3 0.00 0.03 0.03 36 1007.2
20260510000016 27 117 3.2 9.7 0.00 0.03 0.03 34 1007.0
20260509234516 27 200 1.6 8.0 0.00 0.03 0.03 35 1007.2
20260509233021 28 135 4.8 17.7 0.00 0.03 0.03 32 1007.2
20260509231514 28 198 6.4 17.7 0.00 0.03 0.03 31 1007.3
20260509230016 28 173 6.4 20.9 0.00 0.03 0.03 31 1007.2
20260509224510 28 149 9.7 17.7 0.00 1.55 0.03 29 1007.3
20260509223011 28 146 8.0 16.1 0.00 1.55 0.03 30 1007.3
20260509221511 29 153 4.8 14.5 0.00 1.55 0.03 32 1007.4
20260509220002 29 129 3.2 12.9 0.00 1.55 0.03 32 1007.4
20260509214602 29 184 6.4 12.9 0.00 1.55 0.03 33 1007.6
20260509213058 29 139 1.6 12.9 0.00 1.55 0.03 31 1007.6
20260509211557 30 154 1.6 9.7 0.00 1.55 0.03 29 1007.7
20260509210052 30 204 1.6 8.0 0.00 1.55 0.03 30 1007.9
20260509204548 29 98 0.0 8.0 0.00 1.55 0.03 32 1008.1
20260509203109 29 203 4.8 11.3 0.00 1.55 0.03 29 1008.4
20260509201544 29 203 4.8 14.5 0.00 1.55 0.03 28 1008.6
20260509200052 29 200 4.8 12.9 0.00 1.55 0.03 32 1008.8
20260509194540 29 56 1.6 12.9 0.00 1.55 0.03 38 1009.0
20260509193036 28 75 0.0 14.5 0.00 1.55 0.03 37 1009.1
20260509191537 28 46 1.6 11.3 0.00 1.55 0.03 37 1009.1
20260509190034 28 118 3.2 9.7 0.00 1.55 0.03 34 1009.2
20260509184535 28 204 0.0 17.7 0.00 1.55 0.03 39 1009.5
20260509183031 28 171 1.6 6.4 0.00 1.55 0.03 38 1009.6
20260509181531 28 241 4.8 11.3 0.00 1.55 0.03 36 1009.9
20260509180027 28 243 0.0 4.8 0.00 1.55 0.03 37 1010.1
20260509174525 27 186 6.4 11.3 0.00 1.55 0.03 37 1010.1
20260509173024 26 222 3.2 6.4 0.00 1.55 0.03 38 1010.3
20260509171523 27 153 6.4 14.5 0.00 1.55 0.03 35 1010.6
20260509170021 27 184 9.7 14.5 0.00 1.55 0.03 39 1010.7
20260509164519 26 152 8.0 12.9 0.00 1.55 0.03 40 1010.7
20260509163016 26 151 1.6 12.9 0.00 1.55 0.03 45 1010.8
20260509161511 25 158 3.2 11.3 0.00 1.55 0.03 49 1010.7
20260509160009 24 84 0.0 6.4 0.00 1.55 0.03 63 1010.7
20260509154513 24 99 0.0 4.8 0.00 1.55 0.03 64 1010.6
20260509153003 23 82 0.0 4.8 0.00 1.55 0.03 68 1010.4
20260509151607 22 93 0.0 3.2 0.00 1.55 0.03 69 1010.5
20260509150052 21 63 0.0 1.6 0.00 1.55 0.03 80 1010.4
20260509144548 20 67 0.0 3.2 0.00 1.55 0.03 88 1010.4
20260509143045 18 65 0.0 3.2 0.00 1.55 0.03 91 1010.4
20260509141540 17 41 0.0 3.2 0.00 1.55 0.03 94 1010.5
20260509140036 16 18 1.6 4.8 0.00 1.55 0.03 95 1010.5
20260509134533 16 357 1.6 4.8 0.00 1.55 0.03 96 1010.4
20260509133031 15 20 0.0 0.0 0.00 1.55 0.03 96 1010.5
20260509131527 14 44 0.0 3.2 0.00 1.55 0.03 96 1010.3
20260509130046 13 202 0.0 0.0 0.00 1.55 0.03 96 1010.2
20260509124524 11 202 0.0 0.0 0.00 1.55 0.03 96 1010.1
20260509123023 10 202 0.0 0.0 0.00 1.55 0.03 96 1010.0
20260509121524 9 202 0.0 0.0 0.00 1.55 0.03 96 1009.8
20260509120029 8 202 0.0 0.0 0.00 1.55 0.03 96 1009.7
20260509114520 8 202 0.0 0.0 0.00 1.55 0.03 95 1009.5
20260509113019 8 202 0.0 0.0 0.00 1.55 0.03 95 1009.3
20260509111517 9 202 0.0 0.0 0.00 1.55 0.03 96 1009.2
20260509110020 9 202 0.0 0.0 0.00 1.55 0.03 95 1009.4
20260509104514 9 202 0.0 0.0 0.00 1.55 0.03 95 1009.4
20260509103017 9 203 0.0 0.0 0.03 1.55 0.03 95 1009.3
20260509101511 9 203 0.0 0.0 0.03 1.55 0.03 95 1009.4
20260509100012 10 203 0.0 0.0 0.03 1.55 0.03 95 1009.6